Rexburg, ID

3:16 AM MST on November 23, 2017 (GMT -0700)
Rexburg-Madison County

Weather History for KRXE - November, 2010

Change the Weather History Date:

Thursday, November 11, 2010

  Actual Average Record
Temperature  
Mean Temperature 27 °F 33 °F  
Max Temperature 32 °F 43 °F 63 °F (1999)
Min Temperature 22 °F 23 °F 0 °F (2000)
Degree Days  
Heating Degree Days 38 32  
Month to date heating degree days 281 322  
Since 1 July heating degree days 1083 1309  
Cooling Degree Days 0 0  
Month to date cooling degree days 0 0  
Year to date cooling degree days 175 208  
Moisture  
Dew Point 25 °F    
Average Humidity 89    
Maximum Humidity 100    
Minimum Humidity 78    
Precipitation  
Precipitation 0.01 in 0.04 in 0.57 in (1986)
Month to date precipitation 0.95 0.44  
Year to date precipitation 10.78 11.43  
Sea Level Pressure  
Sea Level Pressure 30.41 in    
Wind  
Wind Speed 4 mph (SSW)    
Max Wind Speed 14 mph    
Max Gust Speed 17 mph    
Visibility 10 miles    
Events Snow    
T = Trace of Precipitation, MM = Missing Value Source: NWS Daily Summary

Daily Weather History Graph

Daily Weather History Graph

Search for Another Location

Airport or City:

Trip Planner

Search our weather history database for the weather conditions in past years. The results will help you decide how hot, cold, wet, or windy it might be!

Date:

Astronomy

Nov. 11, 2010 Rise Set
Actual Time 7:16 AM MST 5:05 PM MST
Civil Twilight 6:45 AM MST 5:36 PM MST
Nautical Twilight 6:11 AM MST 6:10 PM MST
Astronomical Twilight 5:37 AM MST 6:44 PM MST
Moon 12:19 PM MST (11/11) 10:14 PM MST (11/11)
Length of Visible Light 10h 50m
Length of Day
9h 48m
Waxing Crescent, 32% of the Moon is Illuminated
Nov 11
Waxing Crescent
Nov 13
First Quarter
Nov 21
Full
Nov 28
Last Quarter
Dec 5
New

Hourly Weather History & Observations

Time (MST) Temp. Windchill Dew Point Humidity Pressure Visibility Wind Dir Wind Speed Gust Speed Precip Events Conditions
1:53 AM 24.1 °F - 21.0 °F 88% 30.28 in 10.0 mi Calm Calm - N/A   Overcast
2:53 AM 24.1 °F - 21.9 °F 91% 30.29 in 10.0 mi Calm Calm - N/A   Overcast
3:53 AM 24.1 °F - 21.9 °F 91% 30.31 in 10.0 mi Calm Calm - N/A   Overcast
4:53 AM 21.9 °F - 21.0 °F 96% 30.32 in 10.0 mi Calm Calm - N/A   Overcast
5:53 AM 21.9 °F - 21.0 °F 96% 30.36 in 10.0 mi Calm Calm - N/A   Overcast
6:53 AM 23.0 °F 18.4 °F 21.0 °F 92% 30.39 in 10.0 mi ENE 3.5 mph - N/A   Overcast
7:53 AM 24.1 °F - 21.9 °F 91% 30.42 in 10.0 mi Calm Calm - N/A   Overcast
8:53 AM 27.0 °F - 23.0 °F 85% 30.43 in 10.0 mi Calm Calm - N/A   Overcast
9:35 AM 28.4 °F - 23.0 °F 80% 30.31 in 10.0 mi Calm Calm - N/A   Overcast
9:53 AM 28.0 °F - 23.0 °F 81% 30.44 in 10.0 mi Calm Calm - N/A   Overcast
10:30 AM 28.4 °F 24.6 °F 24.8 °F 86% 30.33 in 10.0 mi South 3.5 mph - N/A   Overcast
10:53 AM 30.0 °F 25.2 °F 25.0 °F 82% 30.45 in 10.0 mi South 4.6 mph - N/A   Overcast
11:53 AM 30.9 °F 24.3 °F 26.1 °F 82% 30.44 in 10.0 mi SW 6.9 mph - N/A   Overcast
12:28 PM 30.2 °F 22.6 °F 26.6 °F 86% 30.33 in 10.0 mi SSW 8.1 mph - N/A   Overcast
12:53 PM 30.9 °F 25.2 °F 27.0 °F 85% 30.44 in 10.0 mi SSW 5.8 mph - N/A   Overcast
1:29 PM 32.0 °F - 26.6 °F 80% 30.34 in 10.0 mi Calm Calm - N/A   Overcast
1:53 PM 30.9 °F - 28.0 °F 89% 30.45 in 2.0 mi Calm Calm - 0.00 in Snow Light Snow
2:53 PM 32.0 °F 27.5 °F 28.0 °F 85% 30.45 in 10.0 mi SSW 4.6 mph - 0.01 in   Overcast
3:01 PM 32.0 °F 26.4 °F 28.4 °F 87% 30.35 in 10.0 mi SSW 5.8 mph - N/A   Overcast
3:10 PM 32.0 °F 26.4 °F 28.4 °F 87% 30.35 in 10.0 mi SSW 5.8 mph - N/A   Overcast
3:53 PM 32.0 °F 24.8 °F 28.9 °F 88% 30.47 in 10.0 mi SW 8.1 mph - N/A   Overcast
4:33 PM 32.0 °F 24.2 °F 28.4 °F 87% 30.38 in 6.0 mi SSW 9.2 mph - 0.00 in Snow Light Snow
4:53 PM 30.9 °F 22.2 °F 28.9 °F 92% 30.49 in 5.0 mi SSW 10.4 mph - 0.00 in Snow Light Snow
5:25 PM 30.2 °F 22.6 °F 28.4 °F 93% 30.39 in 9.0 mi SSW 8.1 mph - 0.00 in Snow Light Snow
5:53 PM 30.9 °F 21.7 °F 28.0 °F 89% 30.51 in 10.0 mi SW 11.5 mph - 0.00 in   Overcast
6:44 PM 30.2 °F 22.6 °F 28.4 °F 93% 30.40 in 10.0 mi SSW 8.1 mph - N/A   Overcast
6:53 PM 30.0 °F 20.5 °F 28.0 °F 92% 30.51 in 10.0 mi SSW 11.5 mph 17.3 mph N/A   Overcast
7:13 PM 30.2 °F 21.3 °F 26.6 °F 86% 30.40 in 10.0 mi SSW 10.4 mph - N/A   Overcast
7:53 PM 30.0 °F 22.4 °F 27.0 °F 88% 30.53 in 10.0 mi SSW 8.1 mph - N/A   Overcast
8:01 PM 30.2 °F 21.9 °F 26.6 °F 86% 30.42 in 10.0 mi SSW 9.2 mph - N/A   Overcast
8:14 PM 30.2 °F 22.6 °F 26.6 °F 86% 30.42 in 10.0 mi SSW 8.1 mph - N/A   Overcast
8:53 PM 28.9 °F 21.1 °F 25.0 °F 85% 30.53 in 10.0 mi SSW 8.1 mph - N/A   Overcast
9:53 PM 28.9 °F 21.9 °F 24.1 °F 82% 30.52 in 10.0 mi South 6.9 mph - N/A   Mostly Cloudy
10:53 PM 30.0 °F 22.4 °F 24.1 °F 79% 30.52 in 10.0 mi South 8.1 mph - N/A   Overcast
11:53 PM 30.9 °F 24.3 °F 25.0 °F 79% 30.51 in 10.0 mi South 6.9 mph - N/A   Overcast